Alpena, MI

1:49 AM EST on November 13, 2019 (GMT -0500)
Alpena County Regional

Weather History for KAPN - September, 2019

Change the Weather History Date:

Wednesday, September 18, 2019

  Actual Average Record
Temperature  
Mean Temperature 66 °F 57 °F  
Max Temperature 80 °F 68 °F 93 °F (1955)
Min Temperature 52 °F 46 °F 27 °F (1990)
Degree Days  
Heating Degree Days 0 9  
Month to date heating degree days 97 110  
Since 1 July heating degree days 157 225  
Cooling Degree Days 1 1  
Month to date cooling degree days 8 20  
Year to date cooling degree days 287 286  
Growing Degree Days 16 (Base 50)    
Moisture  
Dew Point 54 °F    
Average Humidity 92    
Maximum Humidity 100    
Minimum Humidity 60    
Precipitation  
Precipitation 0.00 in 0.09 in 1.35 in (1978)
Month to date precipitation 2.45 1.77  
Year to date precipitation 24.27 20.55  
Sea Level Pressure  
Sea Level Pressure 30.18 in    
Wind  
Wind Speed 4 mph ()    
Max Wind Speed 16 mph    
Max Gust Speed 22 mph    
Visibility 4.5 miles    
Events Fog    
T = Trace of Precipitation, MM = Missing Value Source: Averaged Metar Reports

Daily Weather History Graph

Daily Weather History Graph

Search for Another Location

Airport or City:

Astronomy

Sep. 18, 2019 Rise Set
Actual Time 7:16 AM EDT 7:39 PM EDT
Civil Twilight 6:46 AM EDT 8:09 PM EDT
Nautical Twilight 6:11 AM EDT 8:43 PM EDT
Astronomical Twilight 5:36 AM EDT 9:19 PM EDT
Moon 10:02 PM EDT (9/18) 11:28 AM EDT (9/18)
Length of Visible Light 13h 22m
Length of Day
12h 23m
Waning Gibbous, 82% of the Moon is Illuminated
Sep 18
Waning Gibbous
Sep 21
Last Quarter
Sep 28
New
Oct 5
First Quarter
Oct 13
Full

Hourly Weather History & Observations

Time (EDT) Temp. Dew Point Humidity Pressure Visibility Wind Dir Wind Speed Gust Speed Precip Events Conditions
12:13 AM 57.0 °F 55.9 °F 96% 30.19 in 2.0 mi South 4.6 mph - N/A   Partly Cloudy
12:17 AM 57.0 °F 55.9 °F 96% 30.18 in 1.0 mi SSE 4.6 mph - N/A   Mist
12:24 AM 55.9 °F 55.0 °F 97% 30.18 in 0.5 mi South 4.6 mph - N/A Fog Fog
12:31 AM 55.9 °F 55.9 °F 100% 30.18 in 1.2 mi SSE 3.5 mph - N/A   Partly Cloudy
12:34 AM 55.9 °F 55.0 °F 97% 30.18 in 3.0 mi SSE 3.5 mph - N/A   Partly Cloudy
12:54 AM 55.9 °F 55.0 °F 97% 30.19 in 4.0 mi Calm Calm - N/A   Clear
1:07 AM 55.0 °F 54.0 °F 96% 30.19 in 1.5 mi SSE 3.5 mph - N/A   Clear
1:16 AM 55.0 °F 54.0 °F 96% 30.18 in 0.5 mi SSE 3.5 mph - N/A Fog Fog
1:24 AM 55.0 °F 54.0 °F 96% 30.19 in 3.0 mi South 3.5 mph - N/A   Clear
1:54 AM 55.9 °F 55.0 °F 97% 30.19 in 2.5 mi SE 3.5 mph - N/A   Clear
2:13 AM 55.0 °F 54.0 °F 96% 30.20 in 0.8 mi SSE 4.6 mph - N/A   Clear
2:28 AM 54.0 °F 53.1 °F 97% 30.20 in 2.5 mi SSE 4.6 mph - N/A   Clear
2:35 AM 54.0 °F 53.1 °F 97% 30.20 in 9.0 mi SSE 3.5 mph - N/A   Partly Cloudy
2:48 AM 55.4 °F 53.6 °F 94% 30.20 in 2.5 mi SE 3.5 mph - N/A   Mostly Cloudy
2:49 AM 54.0 °F 54.0 °F 100% 30.20 in 2.5 mi SE 3.5 mph - N/A   Mostly Cloudy
2:54 AM 54.0 °F 53.1 °F 97% 30.20 in 0.8 mi SE 3.5 mph - N/A   Mist
3:07 AM 55.0 °F 53.1 °F 93% 30.19 in 3.0 mi Calm Calm - N/A   Mostly Cloudy
3:18 AM 57.0 °F 55.0 °F 93% 30.19 in 8.0 mi Calm Calm - N/A   Partly Cloudy
3:28 AM 53.1 °F 52.0 °F 96% 30.19 in 2.0 mi South 3.5 mph - N/A   Partly Cloudy
3:32 AM 52.0 °F 52.0 °F 100% 30.19 in 1.0 mi Calm Calm - N/A   Mist
3:36 AM 52.0 °F 52.0 °F 100% 30.19 in 0.2 mi SSE 3.5 mph - N/A Fog Fog
3:52 AM 53.6 °F 53.6 °F 100% 30.19 in 1.0 mi South 3.5 mph - N/A   Mist
3:53 AM 54.0 °F 53.1 °F 97% 30.19 in 1.8 mi South 3.5 mph - N/A   Scattered Clouds
4:00 AM 54.0 °F 53.1 °F 97% 30.19 in 6.0 mi South 3.5 mph - N/A   Scattered Clouds
4:16 AM 53.1 °F 52.0 °F 96% 30.19 in 1.8 mi SSE 3.5 mph - N/A   Clear
4:28 AM 53.1 °F 52.0 °F 96% 30.19 in 3.0 mi SSE 3.5 mph - N/A   Clear
4:51 AM 55.4 °F 53.6 °F 94% 30.19 in 1.5 mi Calm Calm - N/A   Clear
4:54 AM 53.1 °F 52.0 °F 96% 30.20 in 0.5 mi Calm Calm - N/A Fog Fog
5:05 AM 54.0 °F 53.1 °F 97% 30.19 in 4.0 mi SSE 3.5 mph - N/A   Clear
5:13 AM 54.0 °F 53.1 °F 97% 30.19 in 2.5 mi SSE 3.5 mph - N/A   Partly Cloudy
5:28 AM 53.1 °F 52.0 °F 96% 30.19 in 7.0 mi SSE 3.5 mph - N/A   Partly Cloudy
5:54 AM 55.0 °F 53.1 °F 93% 30.19 in 8.0 mi South 4.6 mph - N/A   Clear
6:54 AM 55.9 °F 54.0 °F 93% 30.20 in 10.0 mi South 4.6 mph - N/A   Clear
7:54 AM 57.0 °F 55.0 °F 93% 30.21 in 10.0 mi SSE 6.9 mph - N/A   Clear
5:54 PM 75.0 °F 61.0 °F 62% 30.14 in 10.0 mi SE 9.2 mph - N/A   Clear
6:54 PM 71.1 °F 60.1 °F 68% 30.13 in 10.0 mi SE 9.2 mph - N/A   Clear
7:54 PM 66.0 °F 59.0 °F 78% 30.14 in 10.0 mi SE 6.9 mph - N/A   Clear
8:16 PM 64.9 °F 57.9 °F 78% 30.15 in 10.0 mi SE 8.1 mph - N/A   Partly Cloudy
8:54 PM 64.0 °F 57.0 °F 78% 30.16 in 10.0 mi SSE 6.9 mph - N/A   Clear
9:54 PM 61.0 °F 55.9 °F 83% 30.16 in 10.0 mi SSE 5.8 mph - N/A   Clear
10:54 PM 61.0 °F 55.0 °F 81% 30.16 in 10.0 mi SSE 6.9 mph - N/A   Clear
11:54 PM 61.0 °F 53.1 °F 75% 30.15 in 10.0 mi South 5.8 mph - N/A   Clear